| time (UTC) | temp C | wind direction | speed KPH | gust KPH | rain 1hr cm | rain 24hr cm | rain mn cm | humidity % | barometer mb |
| 20260505184011 | 11 | 347 | 0.0 | 9.7 | 0.00 | 0.00 | 0.00 | 72 | 1012.0 |
| 20260505183041 | 11 | 20 | 0.0 | 4.8 | 0.00 | 0.00 | 0.00 | 72 | 1012.0 |
| 20260505182035 | 11 | 355 | 0.0 | 1.6 | 0.00 | 0.00 | 0.00 | 71 | 1011.9 |
| 20260505181022 | 12 | 308 | 0.0 | 0.0 | 0.00 | 0.00 | 0.00 | 70 | 1011.9 |
| 20260505180032 | 12 | 335 | 0.0 | 0.0 | 0.00 | 0.00 | 0.00 | 70 | 1012.0 |
| 20260505175020 | 12 | 355 | 0.0 | 3.2 | 0.00 | 0.00 | 0.00 | 71 | 1012.0 |
| 20260505174009 | 12 | 6 | 0.0 | 3.2 | 0.00 | 0.00 | 0.00 | 70 | 1012.1 |
| 20260505173002 | 12 | 327 | 0.0 | 1.6 | 0.00 | 0.00 | 0.00 | 68 | 1012.0 |
| 20260505172029 | 12 | 347 | 0.0 | 3.2 | 0.00 | 0.00 | 0.00 | 68 | 1012.1 |
| 20260505171004 | 12 | 349 | 0.0 | 1.6 | 0.00 | 0.00 | 0.00 | 68 | 1012.1 |
| 20260505170039 | 12 | 355 | 12.9 | 12.9 | 0.00 | 0.00 | 0.00 | 67 | 1012.2 |
| 20260505165023 | 12 | 322 | 0.0 | 12.9 | 0.00 | 0.00 | 0.00 | 66 | 1012.2 |
| 20260505164004 | 12 | 295 | 1.6 | 1.6 | 0.00 | 0.00 | 0.00 | 66 | 1012.1 |
| 20260505163024 | 12 | 42 | 0.0 | 8.0 | 0.00 | 0.00 | 0.00 | 65 | 1012.0 |
| 20260505162010 | 12 | 4 | 0.0 | 12.9 | 0.00 | 0.00 | 0.00 | 65 | 1012.1 |
| 20260505161043 | 12 | 328 | 3.2 | 11.3 | 0.00 | 0.00 | 0.00 | 66 | 1012.1 |
| 20260505153004 | 12 | 322 | 1.6 | 11.3 | 0.00 | 0.00 | 0.00 | 64 | 1012.2 |
| 20260505152003 | 13 | 4 | 0.0 | 1.6 | 0.00 | 0.00 | 0.00 | 64 | 1012.3 |
| 20260505151003 | 13 | 350 | 0.0 | 12.9 | 0.00 | 0.00 | 0.00 | 64 | 1012.2 |
| 20260505125003 | 13 | 14 | 0.0 | 16.1 | 0.00 | 0.00 | 0.00 | 65 | 1012.5 |
| 20260505124002 | 13 | 45 | 0.0 | 11.3 | 0.00 | 0.00 | 0.00 | 64 | 1012.4 |
| 20260505123003 | 14 | 49 | 0.0 | 16.1 | 0.00 | 0.00 | 0.00 | 64 | 1012.5 |
| 20260505122003 | 13 | 359 | 0.0 | 17.7 | 0.00 | 0.00 | 0.00 | 58 | 1012.4 |
| 20260505121003 | 13 | 326 | 0.0 | 12.9 | 0.00 | 0.00 | 0.00 | 59 | 1012.5 |
| 20260505120006 | 13 | 16 | 0.0 | 11.3 | 0.00 | 0.00 | 0.00 | 58 | 1012.6 |
| 20260505115004 | 14 | 65 | 0.0 | 11.3 | 0.00 | 0.00 | 0.00 | 59 | 1012.6 |
| 20260505114002 | 13 | 356 | 1.6 | 16.1 | 0.00 | 0.00 | 0.00 | 59 | 1012.6 |
| 20260505113003 | 15 | 2 | 0.0 | 17.7 | 0.00 | 0.00 | 0.00 | 56 | 1012.5 |
| 20260505112004 | 13 | 276 | 0.0 | 22.5 | 0.00 | 0.00 | 0.00 | 57 | 1012.6 |
| 20260505111003 | 13 | 352 | 0.0 | 9.7 | 0.00 | 0.00 | 0.00 | 60 | 1012.5 |
| 20260505102002 | 13 | 10 | 0.0 | 8.0 | 0.00 | 0.00 | 0.00 | 60 | 1013.1 |
| 20260505101003 | 12 | 54 | 0.0 | 12.9 | 0.00 | 0.00 | 0.00 | 61 | 1013.3 |
| 20260505100005 | 12 | 14 | 1.6 | 12.9 | 0.00 | 0.00 | 0.00 | 61 | 1013.1 |
| 20260505095002 | 12 | 342 | 0.0 | 6.4 | 0.00 | 0.00 | 0.00 | 61 | 1013.2 |
| 20260505094003 | 13 | 29 | 0.0 | 14.5 | 0.00 | 0.00 | 0.00 | 63 | 1013.1 |
| 20260505093027 | 13 | 41 | 0.0 | 16.1 | 0.00 | 0.00 | 0.00 | 62 | 1013.2 |
| 20260505092003 | 13 | 31 | 0.0 | 14.5 | 0.00 | 0.00 | 0.00 | 65 | 1013.1 |
| 20260505091003 | 13 | 37 | 0.0 | 14.5 | 0.00 | 0.00 | 0.00 | 66 | 1013.1 |
| 20260505090007 | 12 | 42 | 0.0 | 17.7 | 0.00 | 0.00 | 0.00 | 67 | 1013.0 |
| 20260505085003 | 12 | 1 | 0.0 | 11.3 | 0.00 | 0.00 | 0.00 | 68 | 1013.2 |
| 20260505084004 | 12 | 339 | 0.0 | 16.1 | 0.00 | 0.00 | 0.00 | 67 | 1013.3 |
| 20260505083004 | 12 | 345 | 0.0 | 1.6 | 0.00 | 0.00 | 0.00 | 68 | 1013.3 |
| 20260505082003 | 12 | 47 | 0.0 | 9.7 | 0.00 | 0.00 | 0.00 | 70 | 1013.4 |
| 20260505081004 | 11 | 64 | 0.0 | 14.5 | 0.00 | 0.00 | 0.00 | 72 | 1013.5 |
| 20260505080007 | 11 | 349 | 0.0 | 12.9 | 0.00 | 0.00 | 0.00 | 71 | 1013.6 |
| 20260505075003 | 11 | 6 | 0.0 | 4.8 | 0.00 | 0.00 | 0.00 | 74 | 1013.5 |
| 20260505074003 | 10 | 28 | 0.0 | 6.4 | 0.00 | 0.00 | 0.00 | 75 | 1013.6 |
| 20260505073003 | 10 | 16 | 0.0 | 3.2 | 0.00 | 0.00 | 0.00 | 76 | 1013.6 |
| 20260505072003 | 10 | 341 | 0.0 | 1.6 | 0.00 | 0.00 | 0.00 | 77 | 1013.6 |
| 20260505071002 | 10 | 352 | 0.0 | 4.8 | 0.00 | 0.00 | 0.00 | 78 | 1013.7 |
| 20260505070005 | 9 | 18 | 0.0 | 0.0 | 0.00 | 0.00 | 0.00 | 78 | 1013.7 |
| 20260505065002 | 9 | 359 | 0.0 | 3.2 | 0.00 | 0.00 | 0.00 | 80 | 1013.7 |
| 20260505064001 | 9 | 352 | 0.0 | 1.6 | 0.00 | 0.00 | 0.00 | 80 | 1013.8 |
| 20260505063002 | 8 | 56 | 0.0 | 0.0 | 0.00 | 0.00 | 0.00 | 80 | 1013.7 |
| 20260505062003 | 8 | 10 | 0.0 | 0.0 | 0.00 | 0.00 | 0.00 | 80 | 1013.6 |
| 20260505061004 | 8 | 359 | 0.0 | 0.0 | 0.00 | 0.00 | 0.00 | 80 | 1013.6 |
| 20260505060007 | 8 | 355 | 0.0 | 1.6 | 0.00 | 0.00 | 0.00 | 80 | 1013.6 |
| 20260505055002 | 8 | 36 | 0.0 | 0.0 | 0.00 | 0.00 | 0.00 | 80 | 1013.5 |
| 20260505054003 | 8 | 345 | 0.0 | 0.0 | 0.00 | 0.00 | 0.00 | 80 | 1013.6 |
| 20260505053004 | 8 | 5 | 0.0 | 1.6 | 0.00 | 0.00 | 0.00 | 80 | 1013.7 |
| 20260505052003 | 8 | 2 | 0.0 | 8.0 | 0.00 | 0.00 | 0.00 | 80 | 1013.5 |
| 20260505051003 | 8 | 30 | 0.0 | 4.8 | 0.00 | 0.00 | 0.00 | 80 | 1013.3 |
| 20260505041003 | 8 | 16 | 0.0 | 9.7 | 0.00 | 0.00 | 0.00 | 81 | 1013.4 |
| 20260505040006 | 8 | 360 | 0.0 | 8.0 | 0.00 | 0.00 | 0.00 | 81 | 1013.3 |
| 20260505035003 | 8 | 349 | 0.0 | 4.8 | 0.00 | 0.00 | 0.00 | 81 | 1013.4 |
| 20260505034003 | 9 | 328 | 0.0 | 4.8 | 0.00 | 0.00 | 0.00 | 80 | 1013.2 |
| 20260505033002 | 9 | 348 | 0.0 | 8.0 | 0.00 | 0.00 | 0.00 | 80 | 1013.4 |
| 20260505032002 | 9 | 320 | 0.0 | 19.3 | 0.00 | 0.00 | 0.00 | 79 | 1013.4 |
| 20260505031003 | 9 | 328 | 0.0 | 16.1 | 0.00 | 0.00 | 0.00 | 79 | 1013.5 |
| 20260505030005 | 9 | 347 | 0.0 | 8.0 | 0.00 | 0.00 | 0.00 | 78 | 1013.5 |
| 20260505025003 | 9 | 322 | 0.0 | 4.8 | 0.00 | 0.00 | 0.00 | 78 | 1013.5 |
| 20260505024004 | 9 | 285 | 0.0 | 12.9 | 0.00 | 0.00 | 0.00 | 78 | 1013.5 |
| 20260505023002 | 9 | 330 | 3.2 | 16.1 | 0.00 | 0.00 | 0.00 | 78 | 1013.5 |
| 20260505022006 | 9 | 30 | 0.0 | 12.9 | 0.00 | 0.00 | 0.00 | 79 | 1013.3 |
| 20260505021007 | 9 | 8 | 0.0 | 17.7 | 0.00 | 0.00 | 0.00 | 80 | 1013.4 |
| 20260505020008 | 9 | 314 | 0.0 | 16.1 | 0.00 | 0.00 | 0.00 | 82 | 1013.2 |
| 20260505015009 | 9 | 351 | 0.0 | 14.5 | 0.00 | 0.00 | 0.00 | 83 | 1013.3 |
| 20260505014004 | 9 | 328 | 0.0 | 19.3 | 0.00 | 0.00 | 0.00 | 85 | 1013.5 |
| 20260505013007 | 9 | 349 | 0.0 | 4.8 | 0.00 | 0.00 | 0.00 | 85 | 1013.6 |
| 20260505012008 | 9 | 338 | 0.0 | 1.6 | 0.00 | 0.00 | 0.00 | 85 | 1013.8 |
| 20260505011007 | 9 | 333 | 0.0 | 1.6 | 0.00 | 0.00 | 0.00 | 85 | 1013.7 |
| 20260505010008 | 9 | 317 | 0.0 | 6.4 | 0.00 | 0.00 | 0.00 | 86 | 1013.7 |
| 20260505005005 | 9 | 344 | 0.0 | 3.2 | 0.00 | 0.00 | 0.00 | 86 | 1013.8 |
| 20260505004009 | 9 | 347 | 0.0 | 1.6 | 0.00 | 0.00 | 0.00 | 87 | 1013.9 |
| 20260505003005 | 9 | 7 | 0.0 | 12.9 | 0.00 | 0.00 | 0.00 | 88 | 1014.0 |
| 20260505002006 | 9 | 349 | 0.0 | 4.8 | 0.00 | 0.00 | 0.00 | 88 | 1014.1 |
| 20260505001004 | 10 | 357 | 0.0 | 8.0 | 0.00 | 0.00 | 0.00 | 88 | 1014.2 |
| 20260505000013 | 10 | 13 | 0.0 | 1.6 | 0.00 | 0.00 | 0.00 | 88 | 1014.2 |
| 20260504235008 | 10 | 9 | 0.0 | 0.0 | 0.00 | 0.00 | 0.00 | 88 | 1014.3 |
| 20260504234005 | 10 | 18 | 0.0 | 0.0 | 0.00 | 0.00 | 0.00 | 88 | 1014.3 |
| 20260504233005 | 10 | 323 | 0.0 | 0.0 | 0.00 | 0.00 | 0.00 | 88 | 1014.2 |
| 20260504232003 | 10 | 322 | 0.0 | 0.0 | 0.00 | 0.00 | 0.00 | 87 | 1014.1 |
| 20260504231003 | 10 | 322 | 0.0 | 1.6 | 0.00 | 0.00 | 0.00 | 86 | 1014.1 |
| 20260504230006 | 10 | 306 | 0.0 | 0.0 | 0.00 | 0.00 | 0.00 | 86 | 1014.1 |
| 20260504225003 | 10 | 321 | 0.0 | 0.0 | 0.00 | 0.00 | 0.00 | 86 | 1014.2 |
| 20260504224004 | 10 | 326 | 0.0 | 0.0 | 0.00 | 0.00 | 0.00 | 86 | 1014.2 |
| 20260504223004 | 10 | 328 | 0.0 | 0.0 | 0.00 | 0.00 | 0.00 | 86 | 1014.3 |
| 20260504222004 | 10 | 322 | 0.0 | 0.0 | 0.00 | 0.00 | 0.00 | 85 | 1014.2 |
| 20260504221004 | 10 | 334 | 0.0 | 0.0 | 0.00 | 0.00 | 0.00 | 85 | 1014.2 |
| 20260504220006 | 10 | 339 | 0.0 | 0.0 | 0.00 | 0.00 | 0.00 | 85 | 1014.3 |
| 20260504215003 | 10 | 341 | 0.0 | 0.0 | 0.00 | 0.00 | 0.00 | 85 | 1014.3 |
| 20260504214004 | 11 | 347 | 0.0 | 0.0 | 0.00 | 0.00 | 0.00 | 85 | 1014.4 |
| 20260504213004 | 11 | 19 | 0.0 | 0.0 | 0.00 | 0.00 | 0.00 | 84 | 1014.5 |
| 20260504212005 | 11 | 22 | 0.0 | 0.0 | 0.00 | 0.00 | 0.00 | 83 | 1014.4 |
| 20260504211003 | 11 | 23 | 0.0 | 0.0 | 0.00 | 0.00 | 0.00 | 83 | 1014.5 |
| 20260504210006 | 11 | 23 | 0.0 | 0.0 | 0.00 | 0.00 | 0.00 | 83 | 1014.5 |
| 20260504205004 | 11 | 32 | 0.0 | 0.0 | 0.00 | 0.03 | 0.00 | 82 | 1014.5 |
| 20260504204003 | 11 | 16 | 0.0 | 0.0 | 0.00 | 0.03 | 0.00 | 82 | 1014.4 |
| 20260504203004 | 12 | 10 | 0.0 | 0.0 | 0.00 | 0.03 | 0.00 | 82 | 1014.3 |
| 20260504202004 | 12 | 41 | 0.0 | 0.0 | 0.00 | 0.03 | 0.00 | 81 | 1014.3 |
| 20260504201004 | 12 | 27 | 0.0 | 0.0 | 0.00 | 0.03 | 0.00 | 81 | 1014.3 |
| 20260504200006 | 12 | 9 | 0.0 | 0.0 | 0.00 | 0.03 | 0.00 | 80 | 1014.2 |
| 20260504195005 | 12 | 41 | 0.0 | 0.0 | 0.00 | 0.05 | 0.00 | 80 | 1014.0 |
| 20260504194004 | 12 | 4 | 0.0 | 0.0 | 0.00 | 0.05 | 0.00 | 79 | 1014.0 |
| 20260504193004 | 12 | 4 | 0.0 | 0.0 | 0.00 | 0.05 | 0.00 | 79 | 1013.7 |
| 20260504192003 | 12 | 28 | 0.0 | 0.0 | 0.00 | 0.05 | 0.00 | 79 | 1013.6 |
| 20260504191004 | 13 | 32 | 0.0 | 0.0 | 0.00 | 0.05 | 0.00 | 78 | 1013.6 |
| 20260504190006 | 13 | 68 | 0.0 | 3.2 | 0.00 | 0.05 | 0.00 | 78 | 1013.6 |
| 20260504185005 | 13 | 61 | 0.0 | 0.0 | 0.00 | 0.15 | 0.00 | 78 | 1013.7 |